Weather History for Dickinson, ND

Change the Weather History Date:

Wednesday, September 7, 2011

  Actual Average Record
Temperature  
Mean Temperature 67 °F 61 °F  
Max Temperature 83 °F 75 °F 102 °F (1908)
Min Temperature 50 °F 47 °F 32 °F (1986)
Degree Days  
Heating Degree Days 0 6  
Month to date heating degree days 30 34  
Since 1 July heating degree days 54 120  
Cooling Degree Days 2 2  
Month to date cooling degree days 5 16  
Year to date cooling degree days 329 402  
Growing Degree Days 16 (Base 50)    
Moisture  
Dew Point 47 °F    
Average Humidity 52    
Maximum Humidity 80    
Minimum Humidity 24    
Precipitation  
Precipitation 0.00 in 0.05 in 0.39 in (2001)
Month to date precipitation 0.08 0.35  
Year to date precipitation 16.41 12.64  
Sea Level Pressure  
Sea Level Pressure 30.24 in    
Wind  
Wind Speed 6 mph (NNE)    
Max Wind Speed 12 mph    
Max Gust Speed 17 mph    
Visibility 10 miles    
Events      
T = Trace of Precipitation, MM = Missing Value Source: NWS Daily Summary

Daily Weather History Graph

Daily Weather History Graph

Search for Another Location

Airport:

Trip Planner

Search our weather history database for the weather conditions in past years. The results will help you decide how hot, cold, wet, or windy it might be!

Date:

Astronomy

Sep. 07, 2011 Rise Set
Actual Time 6:18 AM MDT 7:19 PM MDT
Civil Twilight 5:47 AM MDT 7:50 PM MDT
Nautical Twilight 5:10 AM MDT 8:27 PM MDT
Astronomical Twilight 4:30 AM MDT 9:06 PM MDT
Moon 4:51 PM MDT (9/7) 1:21 AM MDT (9/7)
Length of Visible Light 14h 02m
Length of Day
13h 00m
Waxing Gibbous, 80% of the Moon is Illuminated
Sep 7
Waxing Gibbous
Sep 12
Full
Sep 20
Last Quarter
Sep 27
New
Oct 3
First Quarter

Hourly Weather History & Observations

Time (MDT) Temp. Dew Point Humidity Pressure Visibility Wind Dir Wind Speed Gust Speed Precip Events Conditions
12:56 AM 57.0 °F 46.0 °F 67% 30.14 in 10.0 mi NW 4.6 mph - N/A   Clear
1:56 AM 52.0 °F 45.0 °F 77% 30.16 in 10.0 mi West 4.6 mph - N/A   Clear
2:56 AM 52.0 °F 45.0 °F 77% 30.16 in 10.0 mi WNW 5.8 mph - N/A   Clear
3:56 AM 52.0 °F 45.0 °F 77% 30.18 in 10.0 mi NW 6.9 mph - N/A   Clear
4:56 AM 52.0 °F 45.0 °F 77% 30.19 in 10.0 mi NW 6.9 mph - N/A   Clear
5:56 AM 52.0 °F 45.0 °F 77% 30.22 in 10.0 mi NW 6.9 mph - N/A   Clear
6:56 AM 50.0 °F 45.0 °F 83% 30.24 in 10.0 mi NW 4.6 mph - N/A   Clear
7:56 AM 57.0 °F 48.9 °F 74% 30.25 in 10.0 mi NNW 3.5 mph - N/A   Clear
8:56 AM 66.9 °F 52.0 °F 59% 30.27 in 10.0 mi NNE 3.5 mph - N/A   Clear
9:56 AM 73.9 °F 53.1 °F 48% 30.27 in 10.0 mi NNE 4.6 mph - N/A   Clear
10:56 AM 79.0 °F 46.9 °F 32% 30.27 in 10.0 mi NE 6.9 mph - N/A   Clear
11:56 AM 80.1 °F 46.9 °F 31% 30.27 in 10.0 mi Variable 3.5 mph - N/A   Clear
12:56 PM 82.0 °F 44.1 °F 26% 30.25 in 10.0 mi ENE 10.4 mph - N/A   Clear
1:56 PM 82.0 °F 43.0 °F 25% 30.26 in 10.0 mi Calm Calm - N/A   Clear
2:56 PM 82.0 °F 45.0 °F 27% 30.25 in 10.0 mi Calm Calm - N/A   Clear
3:56 PM 82.0 °F 46.9 °F 29% 30.25 in 10.0 mi NNE 9.2 mph - N/A   Clear
5:56 PM 80.1 °F 46.0 °F 30% 30.25 in 10.0 mi ENE 5.8 mph - N/A   Clear
6:56 PM 73.0 °F 48.9 °F 42% 30.27 in 10.0 mi NE 4.6 mph - N/A   Clear
8:56 PM 64.0 °F 48.9 °F 58% 30.28 in 10.0 mi East 5.8 mph - N/A   Clear
9:56 PM 63.0 °F 51.1 °F 65% 30.28 in 10.0 mi ESE 8.1 mph - N/A   Clear
10:56 PM 61.0 °F 51.1 °F 70% 30.28 in 10.0 mi ESE 6.9 mph - N/A   Clear
11:56 PM 57.9 °F 50.0 °F 75% 30.29 in 10.0 mi ESE 6.9 mph - N/A   Clear